Miscellaneous Local Product
Issued by NWS Hastings, NE

Home | Current Version | Previous Version | Text Only | Print | Product List | Glossary Off
Versions: 1 2 3 4 5 6 7 8 9 10 11 12 13 14 15 16 17 18 19 20 21 22 23 24 25 26 27 28 29 30 31 32 33 34 35 36 37 38 39 40 41 42 43 44 45 46 47 48 49 50

000
AXUS43 KGID 172102
MISGRI

GID CWA HOURLY WEATHER ROUNDUP
NATIONAL WEATHER SERVICE HASTINGS NE
300 PM CST TUE JAN 17 2017

NOTE: "FAIR" INDICATES FEW OR NO CLOUDS BELOW 12,000 FEET WITH NO
SIGNIFICANT WEATHER AND/OR OBSTRUCTIONS TO VISIBILITY.

...SOUTH CENTRAL NEBRASKA...

CITY           SKY/WX    TMP DP  RH WIND       PRES   REMARKS
GRAND ISLAND   SUNNY     39  35  86 W6        30.05S WCI  35
HASTINGS       SUNNY     38  32  79 W8        30.06S WCI  32
KEARNEY        SUNNY     41  30  65 SW8       30.04F
ORD            SUNNY     39  28  64 SW7       30.01S WCI  34
YORK           MIX PCPN  36  32  87 MISG      30.06S
AURORA         SUNNY     36  32  85 W6        30.05S WCI  31
LEXINGTON      SUNNY     44  31  60 NW5       30.03F
HOLDREGE       SUNNY     43  32  66 W6        30.04S
HEBRON         SUNNY     37  32  82 W5        30.09R WCI  33

...NEBRASKA PANHANDLE...

CITY           SKY/WX    TMP DP  RH WIND       PRES   REMARKS
CHADRON        CLOUDY    35  20  54 SW5       29.93F WCI  31
ALLIANCE       SUNNY     45  15  30 W12       29.95F
SCOTTSBLUFF    SUNNY     47  19  33 NW7       29.96F
SIDNEY         SUNNY     45  27  49 SW14      29.98F

...WESTERN AND NORTH CENTRAL NEBRASKA...

CITY           SKY/WX    TMP DP  RH WIND       PRES   REMARKS
VALENTINE      SUNNY     53  11  18 SW14      29.92F
AINSWORTH      SUNNY     50  22  33 SW12      29.95F
ONEILL         SUNNY     45  34  65 SW7       29.98F
BROKEN BOW     SUNNY     41  30  65 W7        30.00F
IMPERIAL       SUNNY     44  25  47 SW10      30.02F
NORTH PLATTE   SUNNY     46  28  49 W8        30.01F
MCCOOK         SUNNY     45  28  51 SW7       30.04F

...EASTERN NEBRASKA...

CITY           SKY/WX    TMP DP  RH WIND       PRES   REMARKS
NORFOLK        SUNNY     34  29  82 NW3       30.02F
SO SIOUX CITY  SUNNY     35  27  72 W7        30.05S WCI  29
TEKAMAH        SUNNY     34  27  75 W5        30.07R WCI  30
COLUMBUS       SUNNY     34  28  80 CALM      30.06S
ALBION         SUNNY     36  31  83 SW5       30.03R WCI  32
OMAHA EPPLEY   CLOUDY    31  26  82 SW5       30.08R WCI  26
OFFUTT AFB     CLOUDY    36  32  87 VRB3      30.07S
MILLARD        SUNNY     36  29  77 W7        30.08S WCI  31
LINCOLN        SUNNY     37  29  72 W6        30.09S WCI  32
NEBRASKA CITY  CLOUDY    32  32 100 W6        30.08S WCI  26
BEATRICE       MOSUNNY   36  32  85 W7        30.08R WCI  30
FALLS CITY     CLOUDY    36  32  85 W9        30.09S WCI  29

...NORTHERN KANSAS...

CITY           SKY/WX    TMP DP  RH WIND       PRES   REMARKS
GOODLAND       SUNNY     45  35  68 SW12      30.03F
HILL CITY      SUNNY     49  29  46 W10       30.07F
NORTON         CLEAR     45  27  49 W8        30.05S
PHILLIPSBURG   SUNNY     45  30  57 W7        30.08S
SMITH CENTER   SUNNY     43  30  61 W6        30.09R
HAYS           SUNNY     46  31  55 W8        30.09F
RUSSELL        SUNNY     44  32  62 SW8G18    30.08S
CONCORDIA      SUNNY     40  32  73 SW7       30.09S
SALINA         SUNNY     45  30  55 W10       30.12S
TOPEKA         PTSUNNY   45  35  68 W7        30.11R



USA.gov is the U.S. government's official web portal to all federal, state and local government web resources and services.